SL-8 DEB, 1477

Orbit data source: Space-Track

SL-8 DEB, 1477 is space debris in LEO originally from a launch on Mon, 15 Mar 1965 UTC launched from the Tyuratam Missile And Space Complex (TTMTR). Debris objects in space refer to the collection of defunct objects orbiting the Earth. Examples of debris include non-operational satellites, rocket bodies, and fragments generated from explosions, collisions, or faulty payload assembly.

Loading next visibility...
SL-8 DEB details
Identifier
1477, 1965-020BB
Orbit
LEO
Last TLE update2 days ago
Origin
Flag of CISRVSN (CIS)
ManufacturerUnknown
MissionSpacecraft
Bus & MotorUnknown
MassUnknown
Launch date (UTC)
1965-03-15 (60 years ago)
Launch vehicleUnknown
Launch site
Tyuratam Missile And Space Complex (TTMTR)
Object type
Payload
Rocket body
Debris
Shape & HBRUnknown
Radar Cross SectionMedium (>0.1 m² and <1 m²)

Expand to show TLE details & history

TLE from 2 days ago
0 SL-8 DEB
1 01477U 65020BB  25014.11322352  .00000540  00000-0  99271-3 0  9993
2 01477  55.4936  15.0869 0583559 208.0704 148.7583 12.98715482810752
Epoch: 2025-01-14T02:43Z
Definitive object data (Epoch: 2025-01-14T02:43:02.512Z)
Latitude0.00001°
Longitude-139.49814°
Altitude1,656.109 km
Speed6.865 km/s
True Right ascension01h 00m 20s
True Declination0° 00' 00"
Sunlit
Object was in daylight at TLE epoch
Visualization TLE readout
Latitude-3.68327°
Longitude38.49433°
Altitude863.372 km
Speed7.615 km/s
Apparent Right ascension10h 04m 10s
Apparent Declination-44° 32' 54"
Sunlit
Object is in daylight
Visualization observer readout
Local Sidereal Time15:28:22
Azimuth229.13° WSW
Elevation-21.415°
Doppler factor1
Orbital elements
Apogee altitude1,713.164 km
Perigee altitude820.884 km
Semi-major axis7,645.161 km
Eccentricity0.0583559
Inclination55.4936°
RAAN15.0869°
Arg. of periapsis208.0704°
True anomaly152.02077°
Mean anomaly148.7583°
Eccentric anomaly150.40934°
Mean motion3.24686 °/min
BSTAR0.00099271
Orbital period110.88 mins
Loading maneuver chart data...
Loading historical data...
Loading historical data...
Loading historical data...
Loading historical data...
Loading historical data...
Loading historical data...
Loading historical data...

SL-8 DEB Visibility forecast

Observer location: undefined°, undefined

Span
Click to sort rows by Start time (UTC) header in descending order
Start Az.
Max El. time (UTC)
Max El. Az.
Max El.
End time (UTC)
End Az.
17 mins2025-01-16 01:00:37.407Z192.122° SSW2025-01-16 01:08:37.407Z126.28° SE37.694°2025-01-16 01:17:37.407Z55.101° ENE
18 mins2025-01-16 02:55:37.407Z245.015° WSW2025-01-16 03:04:37.407Z316.515° NNW41.413°2025-01-16 03:13:37.407Z42.7° NE
14 mins2025-01-16 04:55:37.407Z291.68° WNW2025-01-16 05:02:37.407Z344.854° N28.227°2025-01-16 05:09:37.407Z43.954° NE
13 mins2025-01-16 06:54:37.407Z317.452° NNW2025-01-16 07:01:37.407Z16.062° NNE27.785°2025-01-16 07:07:37.407Z71.085° E
13 mins2025-01-16 08:51:37.407Z317.481° NNW2025-01-16 08:58:37.407Z31.054° NE42.703°2025-01-16 09:04:37.407Z119.447° SE
10 mins2025-01-16 10:48:37.407Z292.643° NW2025-01-16 10:53:37.407Z244.072° WSW26.646°2025-01-16 10:58:37.407Z186.853° SSW
|